Weather Roundup
Issued by NWS Chicago, IL

Home | Current Version | Previous Version | Text Only | Print | Product List | Glossary On
Versions: 1 2 3 4 5 6 7 8 9 10 11 12 13 14 15 16 17 18 19 20 21 22 23 24 25 26 27 28 29 30 31 32 33 34 35 36 37 38 39 40 41 42 43 44 45 46 47 48 49 50
083
NZUS59 KLOT 262104
HRRLOT

CHICAGO AREA WEATHER ROUNDUP
NATIONAL WEATHER SERVICE CHICAGO/ROMEOVILLE IL
400 PM CDT TUE SEP 26 2017

NOTE: "FAIR" INDICATES FEW OR NO CLOUDS BELOW 12,000 FEET WITH NO
SIGNIFICANT WEATHER AND/OR OBSTRUCTIONS TO VISIBILITY.

* THESE STATIONS ARE NOT UNDER NWS QUALITY CONTROL. THEY ALSO MAY NOT
  REPORT WEATHER SUCH AS PRECIPITATION OR FOG.

ILZ005-006-012>014-019>023-262200-
NORTHEAST ILLINOIS

CITY           SKY/WX    TMP DP  RH WIND       PRES   REMARKS
OHARE          PTSUNNY   89  58  34 SW20      29.89F HX  88
MIDWAY         PTSUNNY   91  60  35 SW12      29.89F HX  90
AURORA         MOSUNNY   89  61  38 SW9       29.91F HX  89
LANSING*       MOSUNNY   91  64  40 W14G20    29.91F HX  92
JOLIET*        MOSUNNY   91  60  35 SW7G17    29.90F HX  91
WAUKEGAN       MOSUNNY   90  60  36 S17G25    29.88F HX  89
DUPAGE AIRPORT PTSUNNY   89  59  36 SW18G26   29.90F HX  88
WHEELING       MOSUNNY   90  59  35 W10G20    29.90F HX  89
MORRIS*        MOSUNNY   91  61  36 W13G20    29.89F HX  90
LEWIS AIRPORT* MOSUNNY   88  58  36 SW8       29.90F HX  87
NORTHERLY ISL    N/A     90  54  29 SW10        N/A  HX  88
$$

WIZ051-052-058>065-066-070>072-262200-
SOUTHEAST WISCONSIN

CITY           SKY/WX    TMP DP  RH WIND       PRES   REMARKS
MILWAUKEE      LGT RAIN  80  67  64 CALM      29.88F HX  82
KENOSHA*       PTSUNNY   87  64  46 W7        29.89F HX  88
RACINE*        PTSUNNY   81  70  69 W3        29.90F HX  84
WAUKESHA       MOSUNNY   81  66  61 W9        29.91S HX  83
$$

INZ001>003-010>013-019-020-262200-
NORTHWEST INDIANA

CITY           SKY/WX    TMP DP  RH WIND       PRES   REMARKS
GARY*          MOSUNNY   90  52  27 SW12      29.91F HX  87
MICHIGAN CITY* NOT AVBL
RENSSELAER*    NOT AVBL
VALPARAISO     SUNNY     91  62  37 SW13      29.93F HX  91
$$

LMZ740>746-262200-
SOUTHERN LAKE MICHIGAN

STATION/POSITION TIME  SKY/WX   TEMP WIND        PRES    VSBY
                                AIR  DIR/SP/G
                 (UTC)          (F)  (DEG/KT/KT) (MB)    (MI)
HARRISON CRIB    2040            87  210/ 15/ 16   N/A
BURNHAM HARBOR   2100            90  200/  6/ 13   N/A
CALUMET HARBOR   2030            89  200/ 10/ 15 1012.0F
BURNS HARBOR     2040            87  250/ 12/ 16 1013.2F
MICHIGAN CITY    2040            85  210/  9/ 11   N/A
$$

ABBREVIATIONS USED IN REMARKS
   TC - TEMPERATURE IN CELSIUS
  WCI - WIND CHILL INDEX
   HX - HEAT INDEX
  VSB - VISIBILITY
$$




USA.gov is the U.S. government's official web portal to all federal, state and local government web resources and services.